Location: Juzet
(42.9779°N, 0.7597°E)
Time: 18:08:31
(UTC+00:00)

Meteor 1-19 Rocket - Pass Details

Date: 14 July 2020
Orbit: 810 x 924 km, 81.2° (Epoch: 13 August)

Event Time Altitude Azimuth Distance (km) Brightness Sun altitude
Rises 01:17:30 0° 349° (N) 3,442 8.3 -23.1°
Reaches altitude 10° 01:19:58 10° 349° (N) 2,484 7.4 -23.0°
Maximum altitude 01:25:36 87° 261° (W) 839 4.1 -22.6°
Enters shadow 01:27:11 49° 175° (S) 1,065 4.3 -22.5°
